"Period start","avg(HW err(1)/warn(2) (#))","avg(Visibility (m))","avg(Weather code (#))","avg(Precip intensity (mm/h))","min(HW err(1)/warn(2) (#))","max(HW err(1)/warn(2) (#))","std(HW err(1)/warn(2) (#))","med(HW err(1)/warn(2) (#))","min(Visibility (m))","max(Visibility (m))","std(Visibility (m))","med(Visibility (m))","min(Weather code (#))","max(Weather code (#))","std(Weather code (#))","med(Weather code (#))","min(Precip intensity (mm/h))","max(Precip intensity (mm/h))","std(Precip intensity (mm/h))","med(Precip intensity (mm/h))"
2016-10-13 00:00:00,2,16472,72,0.02,2,2,0,2,14433,19910,1559,16172,71,77,2,71,0.00,0.10,0.03,0.00
2016-10-13 00:10:00,2,17559,73,0.02,2,2,0,2,14436,22546,2239,17290,71,77,3,71,0.00,0.05,0.02,0.00
2016-10-13 00:20:00,2,17304,72,0.01,2,2,0,2,13623,20903,1989,17304,71,77,2,71,0.00,0.05,0.02,0.00
2016-10-13 00:30:00,2,17851,73,0.01,2,2,0,2,15038,21393,1803,17132,71,77,3,71,0.00,0.05,0.02,0.00
2016-10-13 00:40:00,2,15843,73,0.01,2,2,0,2,13463,18782,1817,15640,71,77,3,71,0.00,0.05,0.02,0.00
2016-10-13 00:50:00,2,16090,45,0.00,2,2,0,2,14150,17221,919,16360,0,77,37,71,0.00,0.00,0.00,0.00
2016-10-13 01:00:00,2,16170,0,0.00,2,2,0,2,14602,19175,1228,15891,0,0,0,0,0.00,0.00,0.00,0.00
2016-10-13 01:10:00,2,17628,0,0.00,2,2,0,2,16010,20390,1435,17219,0,0,0,0,0.00,0.00,0.00,0.00
2016-10-13 01:20:00,2,16466,8,0.00,2,2,0,2,14264,21485,2015,16514,0,41,16,0,0.00,0.00,0.00,0.00
2016-10-13 01:30:00,2,14473,67,0.01,2,2,0,2,12401,16607,1206,14531,41,77,13,71,0.00,0.05,0.02,0.00
2016-10-13 01:40:00,2,12941,76,0.01,2,2,0,2,11287,14918,1095,12840,71,77,2,77,0.00,0.05,0.02,0.00
2016-10-13 01:50:00,2,12300,72,0.04,2,2,0,2,9357,14310,1411,12632,71,77,2,71,0.00,0.30,0.09,0.00
2016-10-13 02:00:00,2,11084,71,0.09,2,2,0,2,9477,12678,987,10878,71,71,0,71,0.00,0.25,0.07,0.10
2016-10-13 02:10:00,2,11528,71,0.12,2,2,0,2,8739,14088,1520,11558,71,71,0,71,0.00,0.50,0.14,0.05
2016-10-13 02:20:00,2,11367,71,0.04,2,2,0,2,9232,14209,1325,11016,71,71,0,71,0.00,0.10,0.04,0.03
2016-10-13 02:30:00,2,11676,71,0.04,2,2,0,2,8861,13040,1160,12024,71,71,0,71,0.00,0.10,0.05,0.00
2016-10-13 02:40:00,2,11149,71,0.12,2,2,0,2,7171,13327,1680,11530,71,71,0,71,0.00,0.40,0.13,0.10
2016-10-13 02:50:00,2,12490,71,0.07,2,2,0,2,10294,14229,1350,12922,71,71,0,71,0.00,0.15,0.05,0.05
2016-10-13 03:00:00,2,14228,72,0.03,2,2,0,2,11097,16942,1858,13887,71,77,2,71,0.00,0.10,0.04,0.00
2016-10-13 03:10:00,2,14068,73,0.03,2,2,0,2,11894,15983,1369,14279,71,77,3,71,0.00,0.15,0.05,0.00
2016-10-13 03:20:00,2,14469,75,0.01,2,2,0,2,13067,16191,847,14404,71,77,3,77,0.00,0.05,0.02,0.00
2016-10-13 03:30:00,2,16012,72,0.03,2,2,0,2,12014,22467,2736,15464,71,77,2,71,0.00,0.25,0.07,0.00
2016-10-13 03:40:00,2,16140,37,0.00,2,2,0,2,13238,21111,2239,16278,0,77,37,36,0.00,0.00,0.00,0.00
2016-10-13 03:50:00,2,16133,0,0.00,2,2,0,2,14078,17751,1234,16370,0,0,0,0,0.00,0.00,0.00,0.00
2016-10-13 04:00:00,2,15998,0,0.00,2,2,0,2,12578,17781,1398,16557,0,0,0,0,0.00,0.00,0.00,0.00
2016-10-13 04:10:00,2,12284,15,0.06,2,2,0,2,7030,16934,3217,12500,0,71,24,0,0.00,0.30,0.10,0.00
2016-10-13 04:20:00,2,10418,71,0.25,2,2,0,2,8830,13101,1456,10292,71,71,0,71,0.00,0.60,0.20,0.23
2016-10-13 04:30:00,2,10213,71,0.14,2,2,0,2,8222,12527,1234,10147,71,71,0,71,0.05,0.25,0.06,0.12
2016-10-13 04:40:00,2,10246,71,0.16,2,2,0,2,8792,12165,1084,10188,71,71,0,71,0.05,0.45,0.14,0.12
2016-10-13 04:50:00,2,9333,71,0.24,2,2,0,2,7728,10873,912,9028,71,71,0,71,0.00,0.50,0.15,0.25
2016-10-13 05:00:00,2,8999,71,0.20,2,2,0,2,6857,10076,833,9208,71,71,0,71,0.00,0.50,0.15,0.20
2016-10-13 05:10:00,2,8288,71,0.36,2,2,0,2,6497,10565,1182,8368,71,71,0,71,0.05,0.75,0.24,0.35
2016-10-13 05:20:00,2,9220,71,0.19,2,2,0,2,7009,10926,1224,9656,71,71,0,71,0.05,0.55,0.17,0.10
2016-10-13 05:30:00,2,9307,71,0.26,2,2,0,2,7060,10843,951,9260,71,71,0,71,0.05,0.70,0.18,0.25
2016-10-13 05:40:00,2,8544,71,0.25,2,2,0,2,7505,10151,899,8176,71,71,0,71,0.05,0.55,0.14,0.25
2016-10-13 05:50:00,2,6635,71,0.48,2,2,0,2,4212,9026,1380,6860,71,71,0,71,0.10,0.85,0.23,0.40
2016-10-13 06:00:00,2,6309,71,0.68,2,2,0,2,5080,7649,838,6525,71,71,0,71,0.35,1.05,0.24,0.68
2016-10-13 06:10:00,2,8202,71,0.55,2,2,0,2,5748,11276,1437,8452,71,71,0,71,0.15,1.10,0.25,0.55
2016-10-13 06:20:00,2,8785,71,0.52,2,2,0,2,7572,9878,708,9122,71,71,0,71,0.20,1.25,0.33,0.40
2016-10-13 06:30:00,2,9625,71,0.49,2,2,0,2,8511,11873,889,9494,71,71,0,71,0.10,1.20,0.29,0.43
2016-10-13 06:40:00,2,11672,71,0.28,2,2,0,2,9011,13228,1360,11789,71,71,0,71,0.05,0.75,0.21,0.20
2016-10-13 06:50:00,2,13534,71,0.29,2,2,0,2,10939,15955,1897,13502,71,71,0,71,0.05,0.90,0.24,0.23
2016-10-13 07:00:00,2,13722,71,0.20,2,2,0,2,12005,17117,1493,13456,71,71,0,71,0.05,0.40,0.12,0.15
2016-10-13 07:10:00,2,19702,71,0.07,2,2,0,2,12621,22859,3361,21316,71,71,0,71,0.00,0.25,0.08,0.05
2016-10-13 07:20:00,2,28663,75,0.01,2,2,0,2,20230,34831,4202,27731,71,77,3,77,0.00,0.05,0.02,0.00
2016-10-13 07:30:00,2,35258,24,0.00,2,2,0,2,28416,44899,4525,34827,0,77,31,0,0.00,0.00,0.00,0.00
2016-10-13 07:40:00,2,29273,0,0.00,2,2,0,2,23783,33727,3683,30834,0,0,0,0,0.00,0.00,0.00,0.00
2016-10-13 07:50:00,2,29492,0,0.00,2,2,0,2,23553,33268,2637,29796,0,0,0,0,0.00,0.00,0.00,0.00
2016-10-13 08:00:00,2,30203,0,0.00,2,2,0,2,26994,34447,2149,30438,0,0,0,0,0.00,0.00,0.00,0.00
2016-10-13 08:10:00,2,28540,0,0.00,2,2,0,2,25368,32091,2011,28672,0,0,0,0,0.00,0.00,0.00,0.00
2016-10-13 08:20:00,2,26901,34,0.00,2,2,0,2,23285,29665,1990,27018,0,71,30,41,0.00,0.00,0.00,0.00
2016-10-13 08:30:00,2,33642,68,0.01,2,2,0,2,23423,42656,5590,34418,0,77,23,77,0.00,0.05,0.02,0.00
2016-10-13 08:40:00,2,42262,0,0.00,2,2,0,2,34819,49501,5461,42060,0,0,0,0,0.00,0.00,0.00,0.00
2016-10-13 08:50:00,2,44656,0,0.00,2,2,0,2,38689,50000,3884,45004,0,0,0,0,0.00,0.00,0.00,0.00
2016-10-13 09:00:00,2,43947,0,0.00,2,2,0,2,33760,50000,4857,45146,0,0,0,0,0.00,0.00,0.00,0.00
2016-10-13 09:10:00,2,10284,0,0.00,2,2,0,2,8559,19082,3074,8908,0,0,0,0,0.00,0.00,0.00,0.00
2016-10-13 09:20:00,2,10711,53,0.01,2,2,0,2,7876,14112,2303,10172,0,77,24,56,0.00,0.05,0.02,0.00
2016-10-13 09:30:00,2,29495,75,0.00,2,2,0,2,19235,37900,5554,30586,71,77,3,77,0.00,0.00,0.00,0.00
2016-10-13 09:40:00,2,43782,30,0.00,2,2,0,2,37046,49502,3868,44352,0,77,36,0,0.00,0.00,0.00,0.00
2016-10-13 09:50:00,2,39175,0,0.00,2,2,0,2,34702,45030,3903,37812,0,0,0,0,0.00,0.00,0.00,0.00
2016-10-13 10:00:00,2,33721,35,0.00,2,2,0,2,31163,39077,2705,32702,0,71,25,41,0.00,0.00,0.00,0.00
2016-10-13 10:10:00,2,29930,74,0.02,2,2,0,2,24821,34725,2658,30170,71,77,3,74,0.00,0.15,0.05,0.00
2016-10-13 10:20:00,2,32476,63,0.03,2,2,0,2,29389,37415,2344,32327,41,77,18,77,0.00,0.05,0.03,0.03
2016-10-13 10:30:00,2,35054,41,0.02,2,2,0,2,31995,38637,2202,34794,41,41,0,41,0.00,0.05,0.02,0.00
2016-10-13 10:40:00,2,30702,54,0.00,2,2,0,2,27269,37292,3076,30541,41,77,16,41,0.00,0.00,0.00,0.00
2016-10-13 10:50:00,2,32224,76,0.02,2,2,0,2,25412,40730,5106,31704,71,77,2,77,0.00,0.05,0.02,0.00
2016-10-13 11:00:00,2,29848,73,0.01,2,2,0,2,19732,39286,6514,29780,71,77,3,71,0.00,0.05,0.02,0.00
2016-10-13 11:10:00,2,35065,70,0.03,2,2,0,2,26440,45797,7345,34586,41,77,14,77,0.00,0.05,0.03,0.03
2016-10-13 11:20:00,2,40417,41,0.03,2,2,0,2,35230,46850,3717,40210,41,41,0,41,0.00,0.05,0.03,0.03
2016-10-13 11:30:00,2,34464,12,0.00,2,2,0,2,28251,42549,5114,34032,0,41,19,0,0.00,0.00,0.00,0.00
2016-10-13 11:40:00,2,21541,16,0.00,2,2,0,2,16301,24424,2381,21342,0,41,20,0,0.00,0.00,0.00,0.00
2016-10-13 11:50:00,2,24964,41,0.01,2,2,0,2,19683,32624,4409,23587,41,41,0,41,0.00,0.05,0.02,0.00
2016-10-13 12:00:00,2,30967,4,0.00,2,2,0,2,26010,38455,4201,29407,0,41,12,0,0.00,0.00,0.00,0.00
2016-10-13 12:10:00,2,29788,0,0.00,2,2,0,2,21124,41178,5987,29812,0,0,0,0,0.00,0.00,0.00,0.00
2016-10-13 12:20:00,2,28134,0,0.00,2,2,0,2,24210,31986,2848,27996,0,0,0,0,0.00,0.00,0.00,0.00
2016-10-13 12:30:00,2,32411,0,0.00,2,2,0,2,25057,39606,3710,32162,0,0,0,0,0.00,0.00,0.00,0.00
2016-10-13 12:40:00,2,33658,0,0.00,2,2,0,2,26541,41608,4059,34234,0,0,0,0,0.00,0.00,0.00,0.00
2016-10-13 12:50:00,2,34490,0,0.00,2,2,0,2,27848,43669,5782,31854,0,0,0,0,0.00,0.00,0.00,0.00
2016-10-13 13:00:00,2,38915,0,0.00,2,2,0,2,34601,43492,2902,39380,0,0,0,0,0.00,0.00,0.00,0.00
2016-10-13 13:10:00,2,40100,0,0.00,2,2,0,2,36610,45262,2595,39746,0,0,0,0,0.00,0.00,0.00,0.00
2016-10-13 13:20:00,2,34606,0,0.00,2,2,0,2,23332,41414,6273,37840,0,0,0,0,0.00,0.00,0.00,0.00
2016-10-13 13:30:00,2,25831,0,0.00,2,2,0,2,15453,30684,5110,28173,0,0,0,0,0.00,0.00,0.00,0.00
2016-10-13 13:40:00,2,16776,0,0.00,2,2,0,2,14110,21471,2521,15710,0,0,0,0,0.00,0.00,0.00,0.00
2016-10-13 13:50:00,2,11247,0,0.00,2,2,0,2,7602,14491,2077,11749,0,0,0,0,0.00,0.00,0.00,0.00
2016-10-13 14:00:00,2,6703,7,0.00,2,2,0,2,4828,8581,1392,6890,0,10,5,10,0.00,0.00,0.00,0.00
2016-10-13 14:10:00,2,3237,10,0.00,2,2,0,2,1578,6275,1604,2552,10,10,0,10,0.00,0.00,0.00,0.00
2016-10-13 14:20:00,2,3585,10,0.00,2,2,0,2,1363,9240,2855,2066,10,10,0,10,0.00,0.00,0.00,0.00
2016-10-13 14:30:00,2,2632,10,0.00,2,2,0,2,1574,3709,682,2630,10,10,0,10,0.00,0.00,0.00,0.00
2016-10-13 14:40:00,2,3366,10,0.00,2,2,0,2,1437,7258,1636,3296,10,10,0,10,0.00,0.00,0.00,0.00
2016-10-13 14:50:00,2,2011,10,0.00,2,2,0,2,1336,3018,485,1885,10,10,0,10,0.00,0.00,0.00,0.00
2016-10-13 15:00:00,2,4249,10,0.00,2,2,0,2,1545,18176,5029,2102,10,10,0,10,0.00,0.00,0.00,0.00
2016-10-13 15:10:00,2,7961,10,0.00,2,2,0,2,3262,26536,7153,4551,10,10,0,10,0.00,0.00,0.00,0.00
2016-10-13 15:20:00,2,4491,10,0.00,2,2,0,2,2793,8102,1721,3796,10,10,0,10,0.00,0.00,0.00,0.00
2016-10-13 15:30:00,2,8038,10,0.00,2,2,0,2,3497,13825,3712,7858,10,10,0,10,0.00,0.00,0.00,0.00
2016-10-13 15:40:00,2,28608,6,0.00,2,2,0,2,13357,39068,7307,29576,0,10,5,10,0.00,0.00,0.00,0.00
2016-10-13 15:50:00,2,38573,0,0.00,2,2,0,2,24992,44911,6253,40558,0,0,0,0,0.00,0.00,0.00,0.00
2016-10-13 16:00:00,2,40264,0,0.00,2,2,0,2,36918,44697,2846,39026,0,0,0,0,0.00,0.00,0.00,0.00
2016-10-13 16:10:00,2,36236,0,0.00,2,2,0,2,30299,45308,5208,33925,0,0,0,0,0.00,0.00,0.00,0.00
2016-10-13 16:20:00,2,16654,0,0.00,2,2,0,2,9647,25074,5594,15649,0,0,0,0,0.00,0.00,0.00,0.00
2016-10-13 16:30:00,2,12526,0,0.00,2,2,0,2,5025,25558,6257,11684,0,0,0,0,0.00,0.00,0.00,0.00
2016-10-13 16:40:00,2,16530,0,0.00,2,2,0,2,7237,25454,5870,16942,0,0,0,0,0.00,0.00,0.00,0.00
2016-10-13 16:50:00,2,20360,0,0.00,2,2,0,2,18241,23626,1667,19636,0,0,0,0,0.00,0.00,0.00,0.00
2016-10-13 17:00:00,2,17010,0,0.00,2,2,0,2,7782,26391,5905,17796,0,0,0,0,0.00,0.00,0.00,0.00
2016-10-13 17:10:00,2,26545,24,0.00,2,2,0,2,15868,39515,8902,22573,0,41,20,40,0.00,0.00,0.00,0.00
2016-10-13 17:20:00,2,29292,0,0.00,2,2,0,2,18993,34416,5212,31770,0,0,0,0,0.00,0.00,0.00,0.00
2016-10-13 17:30:00,2,19824,0,0.00,2,2,0,2,17360,25151,2322,18939,0,0,0,0,0.00,0.00,0.00,0.00
2016-10-13 17:40:00,2,29321,0,0.00,2,2,0,2,23704,36781,5085,26591,0,0,0,0,0.00,0.00,0.00,0.00
2016-10-13 17:50:00,2,39310,0,0.00,2,2,0,2,33576,45106,3390,39654,0,0,0,0,0.00,0.00,0.00,0.00
2016-10-13 18:00:00,2,47177,0,0.00,2,2,0,2,41844,50000,2878,48092,0,0,0,0,0.00,0.00,0.00,0.00
2016-10-13 18:10:00,2,49343,0,0.00,2,2,0,2,46900,50000,1064,50000,0,0,0,0,0.00,0.00,0.00,0.00
2016-10-13 18:20:00,2,48660,0,0.00,2,2,0,2,44812,50000,1927,49663,0,0,0,0,0.00,0.00,0.00,0.00
2016-10-13 18:30:00,2,49172,0,0.00,2,2,0,2,45751,50000,1315,50000,0,0,0,0,0.00,0.00,0.00,0.00
2016-10-13 18:40:00,2,47677,0,0.00,2,2,0,2,44355,50000,2078,47973,0,0,0,0,0.00,0.00,0.00,0.00
2016-10-13 18:50:00,2,38705,0,0.00,2,2,0,2,26020,50000,9450,39320,0,0,0,0,0.00,0.00,0.00,0.00
2016-10-13 19:00:00,2,20986,8,0.00,2,2,0,2,7482,33068,9236,23272,0,40,16,0,0.00,0.00,0.00,0.00
2016-10-13 19:10:00,2,4412,68,0.30,2,2,0,2,2576,7395,1607,3996,40,71,9,71,0.00,0.80,0.24,0.25
2016-10-13 19:20:00,2,4220,72,0.17,2,2,0,2,3354,6196,812,3827,71,77,2,71,0.05,0.30,0.08,0.17
2016-10-13 19:30:00,2,5160,73,0.24,2,2,0,2,2691,8081,1643,4728,71,77,3,71,0.00,1.00,0.39,0.05
2016-10-13 19:40:00,2,3593,71,0.64,2,2,0,2,2195,5242,872,3241,71,71,0,71,0.10,2.05,0.50,0.53
2016-10-13 19:50:00,2,4925,71,0.82,2,2,0,2,1688,9925,3220,3773,71,71,0,71,0.00,2.85,1.00,0.23
2016-10-13 20:00:00,2,2372,71,2.05,2,2,0,2,954,3869,1035,2279,71,71,0,71,0.40,4.65,1.36,1.48
2016-10-13 20:10:00,2,3861,71,0.42,2,2,0,2,2709,5521,881,3807,71,71,0,71,0.10,0.85,0.24,0.40
2016-10-13 20:20:00,2,4128,72,0.30,2,2,0,2,1919,7241,2020,3538,71,77,2,71,0.00,0.80,0.26,0.28
2016-10-13 20:30:00,2,6230,76,0.01,2,2,0,2,4905,8004,1050,5832,71,77,2,77,0.00,0.05,0.02,0.00
2016-10-13 20:40:00,2,7666,75,0.00,2,2,0,2,5836,9488,1268,7326,71,77,3,77,0.00,0.00,0.00,0.00
2016-10-13 20:50:00,2,8954,75,0.02,2,2,0,2,3410,17068,4619,8984,71,77,3,77,0.00,0.10,0.03,0.00
2016-10-13 21:00:00,2,4416,77,0.09,2,2,0,2,2427,5717,805,4494,77,77,0,77,0.05,0.25,0.06,0.05
2016-10-13 21:10:00,2,3480,74,0.21,2,2,0,2,2825,4245,448,3380,71,77,3,74,0.10,0.35,0.10,0.17
2016-10-13 21:20:00,2,7828,76,0.02,2,2,0,2,4468,11847,1984,8002,71,77,2,77,0.00,0.10,0.03,0.00
2016-10-13 21:30:00,2,25639,60,0.00,2,2,0,2,11013,49149,12508,24352,0,77,30,74,0.00,0.00,0.00,0.00
2016-10-13 21:40:00,2,19887,7,0.00,2,2,0,2,6962,50000,17376,9514,0,71,21,0,0.00,0.00,0.00,0.00
2016-10-13 21:50:00,2,13049,74,0.01,2,2,0,2,6806,34373,8112,9312,71,77,3,74,0.00,0.05,0.02,0.00
2016-10-13 22:00:00,2,41558,0,0.00,2,2,0,2,34584,49175,4644,39792,0,0,0,0,0.00,0.00,0.00,0.00
2016-10-13 22:10:00,2,29032,0,0.00,2,2,0,2,13646,49327,14233,22840,0,0,0,0,0.00,0.00,0.00,0.00
2016-10-13 22:20:00,2,16394,0,0.00,2,2,0,2,9140,29008,6984,14484,0,0,0,0,0.00,0.00,0.00,0.00
2016-10-13 22:30:00,2,31131,0,0.00,2,2,0,2,10779,49209,13171,32183,0,0,0,0,0.00,0.00,0.00,0.00
2016-10-13 22:40:00,2,11375,61,0.02,2,2,0,2,9606,13122,1332,11356,40,77,17,71,0.00,0.05,0.02,0.00
2016-10-13 22:50:00,2,8450,76,0.08,2,2,0,2,5526,13858,2575,7550,71,77,2,77,0.00,0.15,0.05,0.08
2016-10-13 23:00:00,2,11034,46,0.04,2,2,0,2,5780,13717,2389,11666,0,77,37,74,0.00,0.20,0.06,0.00
2016-10-13 23:10:00,2,14649,0,0.00,2,2,0,2,10558,16906,2101,15166,0,0,0,0,0.00,0.00,0.00,0.00
2016-10-13 23:20:00,2,14044,24,0.11,2,2,0,2,6174,21482,5250,15472,0,77,26,20,0.00,0.30,0.12,0.05
2016-10-13 23:30:00,2,17009,63,0.07,2,2,0,2,9467,28955,6467,14281,41,77,15,67,0.00,0.20,0.06,0.05
2016-10-13 23:40:00,2,39489,12,0.00,2,2,0,2,26937,50000,8669,41399,0,41,19,0,0.00,0.00,0.00,0.00
2016-10-13 23:50:00,2,39669,0,0.00,2,2,0,2,25692,50000,7952,39691,0,0,0,0,0.00,0.00,0.00,0.00
